Location: Finney State Fishing Lake and Wildlife Area
(38.1834°N, 100.3310°W)
Time: 15:28:53
(UTC+00:00)

Tiangong - Pass Details

Date: 03 December 2022
Orbit: 383 x 386 km, 41.5° (Epoch: 05 February)

Event Time Altitude Azimuth Distance (km) Brightness Sun altitude
Rises 00:26:54 0° 258° (WSW) 2,246 3.8 -12.7°
Reaches altitude 10° 00:28:58 10° 261° (W) 1,395 2.1 -13.1°
Maximum altitude 00:32:06 67° 345° (NNW) 417 -2.1 -13.6°
Enters shadow 00:33:32 29° 61° (ENE) 738 -1.3 -13.9°
